Find Beidou DW 51

NORAD ID: 44793 Int'l Des: 2019-078 Owner: CNSA Country: CN Constellation: BeiDou operational
MEOCIRCULAR

Live Position

Loading 3D Globe...

About Beidou DW 51

Description loading...

Upcoming Passes

Passes for default location (London). Set your location on the main map for personalized predictions.

Altitude History

Loading altitude history...

Two-Line Element Set

1 44793U 19078A 26121.90355617 -.00000077 00000-0 00000+0 0 9994
2 44793 53.9793 301.4547 0007399 47.3513 312.6919 1.86227173 43780
Epoch: May 1, 2026 • Age: 10 hours

Current Status

Altitude 21558.6 km
Velocity 3.78 km/s
Sub-Earth Point -51.75°S, 103.71°W
Launch Date Nov 23, 2019
Age 6.4 years
Type navigation

Launch Group

Unknown Vehicle • BeiDou Launch 41 • 2 satellites

Technical Details

Classification Payload
Mass 1014.00 kg
Dry Mass 850.00 kg
Total Mass 1014.00 kg
Length 2.20 m
Diameter 1.70 m
Span 10.00 m
Shape Box + 2 Pan
Manufacturer SECM
Bus Type BD-3M2
Phase Status In Orbit
Owner/State CNSA/CN

Most Searched